Location: Strawberry
(45.6646°N, 111.9596°W)
Time: 12:01:57
(UTC+00:00)

Courier 1B Rocket - Visible Passes

Search period start: 05 October 2022 00:00
Search period end: 15 October 2022 00:00
Orbit: 920 x 1202 km, 28.2° (Epoch: 04 October)

Date Brightness Start Highest point End Pass type
(mag) Time Alt. Az. Time Alt. Az. Time Alt. Az.
05 Oct 7.0 01:29:42 10° S 01:32:19 12° SSE 01:34:52 10° SE visible
05 Oct 6.7 03:20:44 10° SW 03:24:22 16° S 03:24:22 16° S visible
06 Oct 6.8 02:19:56 10° SSW 02:23:50 16° S 02:27:04 11° SE visible
06 Oct 7.2 04:12:44 10° SW 04:13:26 11° SW 04:13:26 11° SW visible
07 Oct 7.0 01:19:21 10° SSW 01:23:06 15° S 01:26:44 10° SE visible
07 Oct 6.7 03:11:29 10° SW 03:15:22 16° S 03:16:07 16° S visible
08 Oct 6.9 02:10:25 10° SW 02:14:39 17° S 02:18:44 10° SE visible
08 Oct 7.2 04:04:12 10° SW 04:05:11 11° SSW 04:05:11 11° SSW visible
09 Oct 6.9 03:02:29 10° SW 03:06:10 15° S 03:07:53 14° S visible
10 Oct 7.0 02:01:07 10° SW 02:05:26 17° S 02:09:35 10° SSE visible
10 Oct 7.3 03:56:52 10° SSW 03:56:58 10° SSW 03:56:58 10° SSW visible
11 Oct 7.1 02:53:48 10° SW 02:56:55 13° SSW 02:59:43 10° S visible
12 Oct 7.1 01:52:04 10° SW 01:56:12 16° SSW 02:00:11 10° SSE visible
13 Oct 7.3 02:45:51 10° SW 02:47:37 11° SSW 02:49:22 10° S visible
14 Oct 7.3 01:43:18 10° SW 01:46:55 14° SSW 01:50:25 10° SSE visible
